Location: Unspecified
(36.5600°N, 136.6600°E)
Time: 04:36:01
(UTC+09:00)

BlueWalker 3 - Pass Details

Date: 25 June 2024
Orbit: 480 x 491 km, 53.2° (Epoch: 24 July)

Event Time Altitude Azimuth Distance (km) Brightness Sun altitude
Rises 01:19:48 0° 319° (NW) 2,536 5.9 -26.9°
Reaches altitude 10° 01:22:04 10° 327° (NNW) 1,655 5.0 -26.7°
Enters shadow 01:24:56 36° 11° (N) 780 3.3 -26.5°
